Temperature
22 20 20 21 21 21 21 20 19 18 17 16 15 15 15 15 15 15 15 15 14 14 14 14 13 13 13 13 13 13 13 13 13 13 13 14 14 14 14 14 14 14 15 15
20 20 21 20 20 20 19 19 18 17 17 16 15 15 15 15 15 15 14 14 14 14 14 14 13 13 13 12 12 12 13 13 13 13 13 13 13 13 13 14 14 14 14 14
21 21 21 20 20 20 19 19 18 17 16 15 15 15 15 14 14 14 14 14 14 14 14 13 13 13 12 12 12 12 12 12 12 12 12 12 13 13 13 13 13 14 14 14
20 21 21 20 20 20 19 20 19 17 15 14 15 14 14 13 14 14 14 14 14 14 13 13 13 13 12 12 12 12 12 12 12 12 12 12 12 12 12 12 13 13 14 14
20 20 20 20 20 20 19 18 18 17 15 14 14 14 13 13 13 13 14 14 14 14 13 13 13 12 12 12 12 12 12 12 12 12 12 12 12 12 12 12 13 13 13 13
19 20 20 20 19 18 18 16 15 13 13 14 15 14 13 12 13 13 14 14 14 14 14 13 13 13 12 12 12 12 12 12 12 12 12 12 12 12 12 12 12 13 13 13
19 19 19 20 19 17 16 15 14 15 14 14 14 14 13 14 13 14 14 14 14 14 14 13 13 13 13 12 12 12 12 12 12 12 12 11 11 11 11 11 12 12 13 13
19 18 19 19 19 18 16 15 15 16 14 13 14 14 14 14 15 15 15 15 14 14 14 13 13 13 12 12 12 12 12 12 12 11 11 11 11 11 11 11 12 12 12 12
18 18 19 19 19 18 17 14 14 13 14 14 13 14 14 14 14 14 14 14 14 14 14 14 13 13 13 12 12 12 12 12 11 11 11 11 11 11 11 11 11 12 12 12
17 18 18 19 18 17 16 13 12 13 14 14 14 14 13 14 13 13 13 14 15 14 14 14 13 13 13 12 12 12 12 11 11 11 11 11 11 11 11 11 11 12 12 12
17 17 17 18 18 18 16 15 12 11 12 13 13 13 14 14 14 13 14 15 15 15 14 14 14 13 13 13 12 12 12 12 11 11 11 11 11 11 11 11 11 11 11 12
15 14 15 17 17 17 17 16 12 14 13 11 11 12 14 14 14 14 15 15 15 15 14 14 14 14 13 13 12 12 12 11 11 11 11 11 11 11 11 11 11 11 11 11
15 14 16 17 16 17 17 15 13 11 10 10 12 13 14 14 14 15 15 15 15 15 15 14 14 14 13 13 13 12 12 11 11 11 11 11 10 10 10 11 11 11 11 11
16 14 16 17 17 16 17 16 13 13 12 12 12 13 14 14 13 14 15 16 15 15 15 15 14 14 14 13 13 12 12 11 11 11 11 11 10 10 10 10 10 10 10 11
15 16 17 17 17 17 17 17 14 14 13 13 14 13 14 14 14 15 16 16 15 15 15 15 15 14 14 13 13 13 12 11 11 11 11 10 10 10 10 10 10 10 10 10
14 17 18 18 18 17 18 17 15 15 15 14 14 13 14 15 15 16 16 16 16 16 15 15 15 14 14 14 13 13 12 12 11 11 10 10 10 10 10 10 10 10 10 10
14 16 16 16 16 18 18 18 16 16 15 15 15 15 15 15 15 17 18 17 16 16 16 15 15 15 14 14 13 13 12 12 11 11 11 10 10 10 10 10 10 10 10 10
14 13 12 14 17 19 18 18 17 17 16 14 15 15 16 17 18 18 18 18 17 17 16 15 15 15 14 14 14 13 12 12 11 11 11 10 10 10 10 10 10 10 10 10
13 13 13 13 16 17 18 19 18 18 18 17 15 15 17 16 16 18 19 18 18 17 16 16 15 15 14 14 14 13 13 12 12 11 11 11 10 10 10 10 10 10 10 10
12 12 12 13 17 18 19 19 19 19 19 19 18 17 16 15 14 16 19 19 18 17 16 16 15 15 15 14 14 13 13 12 12 11 11 11 10 10 10 10 10 10 10 10
15 13 13 14 16 15 16 18 19 18 18 20 20 19 17 16 17 20 19 19 18 17 17 16 15 15 15 14 14 14 13 13 12 12 11 11 11 10 10 10 10 10 10 10
14 13 13 12 16 17 18 17 17 18 20 21 21 21 20 20 20 19 19 19 18 18 17 16 16 15 15 15 14 14 13 13 12 12 12 11 11 11 11 10 10 10 10 10
13 14 12 13 15 17 17 17 18 19 19 20 20 21 20 20 20 20 19 19 18 18 17 16 16 15 15 15 15 14 14 13 13 12 12 12 11 11 11 11 11 10 10 10
13 13 12 13 15 16 16 17 18 19 19 20 20 20 20 20 20 20 20 19 19 18 17 17 16 16 16 15 15 15 14 14 13 13 12 12 12 11 11 11 11 11 11 11
13 12 13 14 14 16 17 16 18 19 20 20 20 20 20 20 20 20 20 19 19 18 18 17 16 16 16 16 16 15 15 14 14 13 13 13 12 12 12 11 11 11 11 11
11 11 13 14 13 12 14 15 17 19 19 19 20 20 20 19 19 19 19 19 19 18 18 17 17 17 16 16 16 16 15 15 14 14 14 13 13 12 12 12 11 11 11 11
Wind_Speed
5 6 3 3 4 4 5 5 3 1 3 4 4 4 2 2 3 2 1 2 4 5 6 7 8 8 8 8 9 9 9 9 7 5 5 5 5 5 4 4 5 6 6 5
7 4 1 5 7 7 6 5 4 4 4 4 4 1 1 1 2 2 1 2 4 6 8 8 8 8 8 8 9 9 9 9 8 6 5 4 5 4 4 4 5 6 6 5
7 1 3 7 6 6 3 4 4 4 4 4 4 3 3 2 0 1 1 2 4 5 7 8 9 8 8 9 9 9 9 9 9 8 6 5 4 3 3 4 4 4 6 5
6 3 5 6 4 4 1 0 3 6 4 0 2 3 6 4 3 3 4 4 6 6 6 7 8 9 9 9 9 9 9 9 8 7 6 7 5 4 4 4 4 5 5 5
4 3 5 5 2 2 2 4 4 3 5 2 1 1 7 1 5 7 6 6 6 6 6 7 8 8 8 8 8 8 9 9 8 8 7 7 6 5 5 5 5 5 5 4
4 3 3 3 3 4 5 7 7 6 5 1 2 4 6 4 6 5 4 5 6 6 7 7 7 7 7 7 8 8 9 9 9 9 8 7 7 7 7 6 6 6 5 4
5 4 4 2 4 6 7 6 5 5 5 4 2 3 7 5 6 5 5 6 6 6 6 7 8 8 8 9 9 8 9 9 9 9 8 8 7 7 6 6 5 6 5 4
4 2 4 3 3 3 4 6 6 2 3 5 3 4 7 4 3 4 4 5 5 6 6 7 7 7 7 8 8 8 8 8 9 9 9 8 8 5 5 5 5 5 4 5
6 2 2 3 2 5 4 3 5 6 1 3 6 7 7 2 3 4 5 5 6 7 7 7 7 6 6 7 7 7 7 8 8 8 8 8 9 8 7 6 6 5 5 5
7 5 2 1 6 6 4 8 5 4 2 4 7 6 5 6 8 7 6 7 8 7 6 7 6 6 6 6 6 6 6 6 6 7 7 7 8 8 8 7 8 8 8 7
5 6 1 4 2 2 3 4 6 4 4 4 4 7 6 7 7 8 8 8 8 7 7 7 6 5 5 5 5 5 6 5 6 7 7 8 8 8 8 7 8 8 7 8
4 6 2 2 2 2 3 5 6 3 2 4 3 7 6 7 7 7 8 7 7 6 6 6 6 5 5 5 5 5 5 5 5 6 6 7 7 7 8 8 8 8 8 8
6 6 4 5 5 1 2 4 5 6 5 4 3 8 4 3 5 6 7 8 7 7 6 5 5 5 5 5 5 4 4 4 5 5 6 7 7 8 8 8 8 8 8 8
5 5 6 6 6 5 4 5 6 6 3 4 7 9 8 7 8 8 8 8 7 7 6 6 5 5 5 4 4 4 4 3 4 4 5 6 7 7 7 7 7 8 8 8
5 4 3 3 3 4 5 6 7 7 7 8 8 7 11 9 9 8 8 7 7 7 7 7 6 5 5 4 3 3 3 3 3 4 5 5 6 6 6 7 7 8 8 8
4 4 2 3 2 3 4 6 7 7 6 7 7 9 10 7 4 5 7 8 8 8 8 7 7 6 5 5 4 3 2 2 2 3 4 5 6 6 7 7 7 7 8 8
3 4 3 2 4 3 5 6 7 6 8 8 8 8 5 4 6 8 8 9 9 9 8 8 7 6 6 5 4 4 3 1 1 2 4 5 5 6 6 6 7 7 7 7
6 5 4 2 3 3 7 3 6 6 7 9 9 8 7 8 6 6 7 9 10 9 8 8 6 5 5 4 3 3 2 1 1 3 4 4 5 5 5 6 6 6 5 6
4 7 4 3 0 6 7 2 5 3 6 6 8 9 5 1 3 6 8 10 10 9 8 7 6 5 4 4 4 3 2 1 2 3 4 4 4 4 5 5 6 4 4 5
6 6 6 4 2 4 6 3 2 2 5 5 5 5 3 5 1 6 6 7 9 8 6 6 5 4 4 4 4 4 4 3 4 5 4 4 3 3 4 4 4 3 3 4
3 4 4 4 3 7 8 3 3 2 6 5 3 4 8 8 8 5 3 4 7 7 7 6 6 5 6 5 6 5 5 6 6 4 3 3 3 3 3 3 2 3 3 4
7 6 5 5 2 6 3 4 5 6 4 3 3 4 8 10 8 5 5 5 7 7 7 7 6 6 5 6 7 7 7 7 5 4 4 4 3 3 1 2 2 2 3 3
7 7 7 8 6 4 2 3 4 3 4 4 4 4 5 7 7 7 6 7 7 8 7 6 7 7 5 6 8 9 8 6 5 4 5 4 3 2 2 1 2 2 2 2
3 2 4 3 4 2 3 4 6 5 5 6 5 5 3 6 7 7 7 7 7 7 7 6 7 7 7 7 8 10 7 6 6 6 6 5 4 4 3 2 2 2 2 2
3 3 3 3 3 4 5 8 10 8 6 6 5 3 2 4 6 6 6 7 7 7 6 6 8 9 10 8 9 9 8 7 7 7 6 5 5 5 4 4 4 4 4 5
3 5 6 5 2 1 3 8 11 9 9 8 7 7 6 3 5 5 6 6 6 7 6 7 8 9 10 8 9 9 8 9 8 7 7 6 5 5 4 4 4 7 8 8
Wind_Direction
41 73 106 189 188 171 156 153 153 127 107 113 138 142 146 124 111 111 43 338 327 319 317 328 329 330 333 337 338 334 335 334 337 334 331 322 315 309 304 296 297 297 290 280
53 58 94 99 85 87 100 118 116 80 63 97 113 124 198 185 184 193 216 301 314 319 328 331 331 335 336 332 333 334 336 333 335 329 313 290 288 292 288 297 307 303 297 287
119 116 88 92 82 79 71 144 162 145 69 63 87 326 251 256 275 247 271 287 299 308 318 322 326 329 332 333 332 336 331 331 331 333 327 322 318 313 321 323 317 310 307 294
89 54 84 83 73 101 116 277 134 132 119 209 136 281 275 242 272 270 274 292 296 303 312 315 321 326 328 328 329 333 333 333 333 337 341 342 339 325 310 311 306 310 313 310
79 79 84 82 59 95 133 57 81 110 124 72 49 212 290 285 262 264 262 272 285 293 302 309 314 316 319 325 331 335 337 339 339 342 344 342 336 322 317 319 322 325 324 315
70 52 76 111 69 64 107 70 57 51 72 3 236 188 282 234 230 251 252 264 280 292 301 308 313 316 320 327 334 338 342 340 343 346 347 346 339 334 334 337 337 333 328 322
41 24 18 75 72 31 65 76 32 6 8 268 277 215 256 251 230 226 238 256 274 289 299 306 313 319 324 328 332 336 342 340 342 348 350 346 342 338 338 336 334 334 334 330
124 356 356 37 108 99 73 119 141 201 251 291 321 255 261 261 245 229 233 253 276 290 294 298 300 308 316 320 328 336 340 339 344 350 349 349 350 348 344 342 343 338 332 327
144 173 357 55 87 114 109 94 148 131 162 300 294 290 305 233 255 246 253 266 275 281 288 294 302 308 311 319 325 330 337 342 346 349 350 354 359 1 357 354 353 350 346 344
130 127 8 47 67 44 96 138 92 99 113 307 304 293 269 261 253 251 251 257 268 279 287 295 302 306 308 312 319 333 341 342 344 350 353 359 359 1 2 5 6 1 355 354
97 119 26 31 85 148 102 81 96 102 140 155 299 285 232 230 233 234 242 247 257 268 279 285 294 303 310 319 327 336 342 347 349 351 351 356 355 357 3 7 2 358 357 358
100 110 118 281 286 218 157 150 144 142 201 163 197 271 267 238 239 229 241 250 256 262 273 281 289 305 317 323 327 331 337 342 342 346 352 355 355 358 4 1 356 356 359 360
130 107 82 352 344 350 147 136 129 122 115 153 197 267 290 270 253 240 241 251 260 268 278 288 293 298 302 310 316 323 328 330 337 351 357 358 358 0 359 355 354 357 359 359
111 108 154 185 220 200 195 173 150 134 151 214 230 260 291 268 253 248 240 244 253 261 269 276 280 281 286 293 298 310 317 326 339 356 1 358 353 352 351 352 356 359 359 1
97 124 179 220 218 178 210 202 177 186 194 207 243 250 267 263 243 238 232 234 244 258 261 262 264 271 277 282 286 297 307 323 343 356 356 347 343 350 355 358 357 358 3 4
76 115 81 8 356 210 252 241 203 215 214 232 263 275 261 265 239 234 230 226 237 248 250 255 261 264 263 259 259 269 280 299 329 344 341 340 349 356 358 354 355 0 2 0
90 113 96 327 331 23 291 249 197 215 214 200 227 247 264 254 237 233 226 222 230 239 243 244 248 251 252 248 236 234 242 270 316 324 332 339 346 352 352 354 359 360 356 0
121 98 105 72 33 272 249 250 190 217 248 219 235 251 242 239 252 250 223 216 229 234 234 236 237 244 247 238 220 208 196 226 286 308 321 329 341 344 349 358 359 354 353 359
117 124 108 104 62 293 302 248 174 195 289 231 230 256 256 238 351 300 232 210 219 222 220 222 223 223 226 224 205 179 191 229 269 287 298 310 325 334 345 352 348 348 353 1
64 86 107 118 142 244 257 288 173 118 306 278 217 248 183 125 41 277 265 213 216 214 210 212 209 206 216 218 178 179 209 232 253 263 277 294 306 317 327 333 334 338 347 350
81 63 110 147 213 264 253 252 116 86 266 279 226 219 172 191 212 237 283 219 207 204 204 199 193 206 220 197 173 196 216 234 243 252 271 290 297 296 301 327 337 339 351 0
164 151 166 146 175 262 265 151 174 225 261 275 255 216 203 229 248 254 260 235 212 202 200 191 195 220 223 189 182 207 229 236 235 238 257 274 286 295 317 337 340 352 359 4
186 185 182 184 204 252 304 237 288 282 271 277 273 262 230 241 249 242 241 233 220 210 206 196 200 222 227 203 194 213 234 223 216 229 247 259 273 277 280 283 309 334 348 347
238 151 158 232 264 287 332 332 328 303 274 286 288 286 238 240 254 246 241 231 223 219 213 203 201 220 234 220 212 222 230 207 205 227 243 248 253 262 260 250 243 251 272 292
204 165 177 235 301 340 8 6 343 333 337 342 339 336 301 263 270 253 244 236 227 224 217 204 208 223 236 229 224 227 219 199 209 227 237 241 240 244 251 247 235 231 232 215
195 175 174 200 206 229 305 339 344 353 1 1 7 9 4 333 289 279 258 248 237 232 223 219 223 231 240 234 233 231 211 198 206 224 233 231 231 235 235 246 267 243 235 244
Height
1527 1534 1541 1539 1538 1540 1543 1549 1554 1554 1553 1557 1560 1562 1562 1561 1561 1561 1561 1560 1559 1557 1556 1553 1550 1546 1542 1539 1535 1531 1528 1525 1521 1518 1515 1513 1511 1510 1509 1508 1508 1508 1508 1508
1534 1540 1537 1536 1537 1540 1545 1552 1555 1556 1555 1558 1563 1564 1562 1561 1561 1561 1560 1559 1558 1557 1554 1552 1549 1545 1542 1538 1534 1530 1527 1523 1520 1517 1514 1511 1508 1507 1506 1505 1504 1504 1504 1504
1537 1540 1536 1538 1542 1545 1549 1552 1554 1558 1560 1561 1564 1567 1563 1561 1560 1560 1560 1559 1558 1556 1554 1551 1548 1545 1541 1537 1533 1530 1526 1522 1519 1516 1512 1509 1507 1505 1503 1502 1501 1501 1501 1501
1538 1538 1539 1542 1545 1546 1553 1548 1550 1556 1564 1570 1567 1578 1565 1562 1560 1559 1558 1558 1557 1555 1553 1551 1548 1544 1541 1537 1534 1530 1526 1522 1519 1515 1511 1508 1505 1503 1501 1500 1499 1498 1498 1497
1541 1540 1542 1545 1546 1545 1550 1549 1551 1556 1564 1572 1571 1577 1570 1562 1562 1559 1557 1556 1556 1555 1553 1550 1548 1545 1541 1538 1534 1530 1526 1522 1519 1515 1511 1508 1505 1503 1500 1499 1497 1496 1495 1495
1541 1541 1542 1544 1545 1546 1548 1554 1559 1565 1570 1579 1571 1577 1572 1566 1559 1556 1555 1555 1554 1554 1552 1550 1547 1545 1541 1538 1534 1530 1526 1523 1519 1515 1511 1508 1505 1502 1499 1497 1496 1494 1493 1492
1546 1545 1544 1544 1547 1549 1552 1564 1579 1578 1585 1581 1571 1573 1569 1556 1554 1553 1553 1553 1553 1552 1551 1549 1547 1544 1541 1538 1534 1531 1527 1523 1519 1515 1512 1508 1505 1502 1498 1496 1495 1493 1492 1491
1553 1557 1548 1545 1548 1553 1556 1563 1580 1585 1588 1584 1572 1573 1562 1552 1551 1551 1552 1552 1552 1551 1550 1548 1546 1544 1541 1538 1535 1531 1527 1524 1520 1516 1512 1509 1505 1502 1499 1497 1495 1493 1491 1490
1553 1556 1547 1546 1547 1550 1557 1565 1567 1579 1580 1585 1578 1568 1556 1551 1551 1551 1551 1551 1550 1550 1549 1548 1546 1544 1541 1538 1535 1532 1528 1525 1521 1517 1513 1510 1506 1503 1500 1498 1496 1493 1491 1489
1543 1554 1550 1548 1548 1552 1554 1563 1573 1579 1585 1588 1581 1573 1566 1553 1551 1549 1549 1549 1549 1548 1548 1547 1545 1543 1541 1538 1536 1532 1529 1526 1522 1519 1515 1511 1508 1504 1501 1499 1496 1494 1491 1489
1541 1554 1556 1553 1554 1555 1559 1564 1574 1582 1583 1590 1589 1577 1553 1549 1546 1547 1546 1546 1547 1547 1546 1545 1544 1543 1541 1538 1536 1533 1530 1527 1523 1520 1516 1513 1509 1506 1503 1500 1497 1495 1492 1489
1545 1556 1563 1556 1552 1551 1553 1559 1570 1577 1580 1586 1590 1578 1546 1544 1543 1544 1544 1545 1545 1545 1545 1544 1543 1542 1540 1538 1535 1533 1530 1527 1524 1521 1518 1514 1511 1508 1505 1501 1499 1496 1493 1490
1544 1555 1567 1566 1563 1555 1555 1559 1564 1573 1582 1588 1587 1571 1544 1543 1542 1542 1542 1543 1543 1543 1543 1543 1542 1541 1539 1537 1535 1533 1530 1528 1525 1522 1519 1515 1512 1509 1506 1503 1500 1497 1495 1492
1539 1552 1561 1564 1562 1556 1555 1557 1563 1568 1578 1580 1575 1563 1547 1542 1541 1539 1540 1540 1541 1541 1541 1541 1540 1539 1538 1537 1535 1533 1530 1528 1525 1523 1519 1516 1513 1510 1507 1504 1502 1499 1496 1494
1540 1550 1549 1550 1549 1551 1551 1553 1559 1562 1564 1568 1560 1556 1544 1538 1536 1535 1536 1538 1539 1539 1539 1539 1539 1538 1537 1536 1534 1532 1530 1528 1526 1523 1520 1517 1514 1511 1509 1506 1503 1501 1498 1495
1541 1547 1548 1550 1548 1548 1549 1548 1552 1555 1555 1556 1555 1550 1535 1533 1533 1533 1534 1535 1536 1536 1537 1537 1537 1537 1536 1535 1533 1532 1530 1528 1526 1523 1521 1518 1515 1513 1510 1507 1505 1502 1500 1497
1545 1548 1555 1558 1552 1549 1552 1544 1547 1547 1546 1547 1549 1541 1533 1532 1531 1531 1531 1532 1533 1534 1535 1535 1536 1535 1535 1534 1533 1531 1530 1528 1526 1524 1522 1519 1516 1514 1511 1509 1506 1504 1501 1499
1544 1552 1561 1562 1555 1557 1548 1536 1538 1540 1539 1538 1536 1532 1531 1530 1529 1529 1529 1530 1531 1532 1533 1534 1534 1534 1534 1533 1532 1531 1529 1528 1526 1524 1522 1520 1517 1515 1513 1510 1508 1505 1503 1501
1541 1549 1561 1566 1563 1558 1542 1534 1535 1538 1536 1530 1531 1528 1528 1528 1528 1527 1526 1527 1528 1530 1531 1532 1533 1533 1532 1532 1531 1530 1529 1527 1526 1524 1523 1520 1518 1516 1514 1511 1509 1507 1504 1502
1544 1547 1559 1565 1559 1558 1543 1532 1532 1536 1538 1528 1527 1526 1527 1528 1533 1528 1524 1525 1526 1527 1529 1530 1531 1531 1531 1531 1530 1529 1528 1527 1526 1524 1523 1521 1519 1517 1515 1512 1510 1508 1506 1504
1549 1554 1559 1563 1561 1554 1535 1531 1533 1544 1542 1527 1525 1525 1525 1525 1526 1525 1524 1524 1524 1526 1527 1528 1529 1529 1530 1529 1529 1528 1527 1526 1525 1524 1523 1521 1519 1517 1515 1513 1511 1509 1507 1505
1548 1554 1559 1563 1560 1552 1530 1531 1534 1534 1526 1525 1524 1524 1523 1522 1522 1522 1522 1523 1523 1524 1525 1526 1527 1527 1528 1528 1527 1527 1526 1525 1524 1523 1522 1521 1520 1518 1516 1514 1512 1510 1508 1506
1541 1541 1544 1546 1544 1533 1530 1529 1528 1527 1525 1524 1524 1523 1522 1521 1520 1520 1520 1521 1522 1522 1523 1524 1524 1525 1526 1526 1526 1525 1525 1524 1523 1522 1521 1520 1519 1518 1516 1514 1512 1510 1508 1506
1535 1534 1537 1538 1532 1530 1529 1527 1526 1524 1523 1523 1522 1521 1520 1519 1519 1518 1519 1519 1519 1520 1521 1522 1522 1523 1523 1523 1523 1523 1523 1522 1522 1521 1520 1519 1518 1517 1515 1514 1512 1510 1508 1507
1530 1532 1533 1533 1530 1528 1527 1526 1524 1523 1522 1521 1520 1519 1519 1518 1517 1517 1517 1517 1517 1518 1519 1519 1519 1520 1520 1521 1521 1521 1521 1520 1519 1519 1518 1517 1516 1515 1514 1513 1512 1510 1508 1507
1528 1529 1530 1530 1529 1529 1528 1526 1524 1522 1521 1520 1519 1518 1517 1517 1516 1515 1515 1515 1515 1515 1516 1516 1516 1517 1517 1518 1518 1518 1518 1517 1516 1516 1515 1515 1514 1513 1512 1511 1510 1509 1507 1506